This demonstration page uses our WeatherBlox Daily Observations layout. Learn more.

Left ArrowRight Arrow

44.8408, -93.29828

Hourly Observations for September 28, 2018

Temp ( °F °C ) Dew Point ( °F °C ) Humidity (%) Winds ( mph kmh ) Pressure ( in mb ) Visibility ( mi km ) Precip ( " mm )
12:53 am 00:53 Mostly Cloudy 48 8.9 39 3.9 71 71 WNW 10 17 30.01 1016 10 16 0.00 0.00
1:53 am 01:53 Cloudy 47 8.3 40 4.4 77 77 WNW 8 13 30.03 1017 10 16 0.00 0.00
2:53 am 02:53 Mostly Cloudy 45 7.2 40 4.4 83 83 WNW 8 13 30.04 1017 10 16 0.00 0.00
3:53 am 03:53 Cloudy 46 7.8 41 5 83 83 WNW 7 11 30.06 1018 10 16 0.00 0.00
4:53 am 04:53 Mostly Cloudy 45 7.2 41 5 86 86 WNW 9 15 30.09 1019 10 16 0.00 0.00
5:53 am 05:53 Mostly Clear 44 6.7 40 4.4 85 85 WNW 8 13 30.12 1020 10 16 0.00 0.00
6:53 am 06:53 Partly Cloudy 43 6.1 39 3.9 86 86 NW 13 20 30.14 1021 10 16 0.00 0.00
7:53 am 07:53 Partly Cloudy 44 6.7 38 3.3 79 79 NW 12 19 30.16 1021 10 16 0.00 0.00
8:53 am 08:53 Mostly Sunny 46 7.8 38 3.3 73 73 W 8 13 30.17 1022 10 16 0.00 0.00
9:53 am 09:53 Mostly Sunny 48 8.9 37 2.8 66 66 WNW 9 15 30.19 1022 10 16 0.00 0.00
10:53 am 10:53 Mostly Cloudy 51 10.6 36 2.2 56 56 WNW 17 28 30.19 1022 10 16 0.00 0.00
11:53 am 11:53 Partly Cloudy 51 10.6 36 2.2 56 56 W 14 22 30.18 1022 10 16 0.00 0.00
12:53 pm 12:53 Partly Cloudy 54 12.2 28 -2.2 37 37 WNW 16 26 30.19 1022 10 16 0.00 0.00
1:46 pm 13:46 Partly Cloudy 54 12.2 29 -1.7 38 38 W 22 35 30.18 1022 10 16 0.00 0.00
1:53 pm 13:53 Partly Cloudy 54 12.2 31 -0.6 42 42 W 14 22 30.20 1023 10 16 0.00 0.00
2:53 pm 14:53 Mostly Sunny 55 12.8 31 -0.6 40 40 WNW 20 31 30.19 1022 10 16 0.00 0.00
3:53 pm 15:53 Partly Cloudy 55 12.8 32 0 42 42 W 17 28 30.19 1023 10 16 0.00 0.00
4:53 pm 16:53 Partly Cloudy 54 12.2 31 -0.6 42 42 W 17 28 30.20 1023 10 16 0.00 0.00
5:53 pm 17:53 Partly Cloudy 51 10.6 32 0 48 48 WNW 15 24 30.22 1023 10 16 0.00 0.00
6:53 pm 18:53 Mostly Sunny 49 9.4 31 -0.6 50 50 NW 10 17 30.24 1024 10 16 0.00 0.00
7:53 pm 19:53 Mostly Clear 46 7.8 32 0 58 58 WNW 3 6 30.25 1025 10 16 0.00 0.00
8:53 pm 20:53 Clear 46 7.8 33 0.6 61 61 NNW 3 6 30.25 1024 10 16 0.00 0.00
9:53 pm 21:53 Mostly Clear 43 6.1 33 0.6 68 68 N 7 11 30.27 1025 10 16 0.00 0.00
10:53 pm 22:53 Clear 42 5.6 32 0 68 68 N 5 7 30.29 1026 10 16 0.00 0.00
11:53 pm 23:53 Mostly Clear 42 5.6 31 -0.6 65 65 Calm 30.31 1026 10 16 0.00 0.00

Powered by AerisWeather